Voltar ao catálogo

SCOUT B-1 R/B

AtivoSSO
NORAD 8861·ROCKET BODY·🇺🇸 United States

Lançado May 22, 1976 de Vandenberg Space Force Base

Loading…

Próximas Passagens (próximas 24 horas)

TLE

AtualizadoSource: Space-Track

Época: Sep 14, 2026, 21:16 UTC

1 08861U 76047B   26257.88616029  .00000004  00000-0  61184-4 0  9997
2 08861  99.8365 124.6902 0040939 289.1396  96.9142 13.66776623506786

Acompanhe SCOUT B-1 R/B em tempo real com AllMySat

Download on the App Store